owner,sensor,date,latitude,longitude,vertical_datum,wind_speed,wind_to_direction,wind_speed_of_gust,qcFlag 
ADCP,ioos:station:wmo:42361:1,2005-09-13T15:00:00Z,27.5500,-92.4900,122.0,5.0,130.0,99.0,'11111222,11111222,11144222' 
ADCP,ioos:station:wmo:42361:1,2005-09-13T16:00:00Z,27.5500,-92.4900,122.0,5.0,120.0,99.0,'11111222,11111222,11144222' 
ADCP,ioos:station:wmo:42361:1,2005-09-13T17:00:00Z,27.5500,-92.4900,122.0,6.0,120.0,99.0,'11111222,11111222,11144222' 
ADCP,ioos:station:wmo:42361:1,2005-09-13T18:00:00Z,27.5500,-92.4900,122.0,6.0,120.0,99.0,'11111222,11111222,11144222' 
ADCP,ioos:station:wmo:42361:1,2005-09-13T19:00:00Z,27.5500,-92.4900,122.0,5.0,120.0,99.0,'11111222,11111222,11144222' 
ADCP,ioos:station:wmo:42361:1,2005-09-13T20:00:00Z,27.5500,-92.4900,122.0,5.0,110.0,99.0,'11111222,11111222,11144222' 
ADCP,ioos:station:wmo:42361:1,2005-09-13T21:00:00Z,27.5500,-92.4900,122.0,5.0,130.0,99.0,'11111222,11111222,11144222' 
ADCP,ioos:station:wmo:42361:1,2005-09-13T22:00:00Z,27.5500,-92.4900,122.0,6.0,130.0,99.0,'11111222,11111222,11144222' 
ADCP,ioos:station:wmo:42361:1,2005-09-13T23:00:00Z,27.5500,-92.4900,122.0,5.0,130.0,99.0,'11111222,11111222,11144222' 
ADCP,ioos:station:wmo:42361:1,2005-09-14T00:00:00Z,27.5500,-92.4900,122.0,4.0,130.0,99.0,'11111222,11111222,11144222' 
ADCP,ioos:station:wmo:42361:1,2005-09-14T01:00:00Z,27.5500,-92.4900,122.0,4.0,140.0,99.0,'11111222,11111222,11144222' 
ADCP,ioos:station:wmo:42361:1,2005-09-14T02:00:00Z,27.5500,-92.4900,122.0,7.0,120.0,99.0,'11111222,11111222,11144222' 
ADCP,ioos:station:wmo:42361:1,2005-09-14T03:00:00Z,27.5500,-92.4900,122.0,6.0,130.0,99.0,'11111222,11111222,11144222' 
ADCP,ioos:station:wmo:42361:1,2005-09-14T04:00:00Z,27.5500,-92.4900,122.0,6.0,130.0,99.0,'11111222,11111222,11144222' 
ADCP,ioos:station:wmo:42361:1,2005-09-14T09:00:00Z,27.5500,-92.4900,122.0,6.0,170.0,99.0,'11111222,11111222,11144222' 
ADCP,ioos:station:wmo:42361:1,2005-09-14T10:00:00Z,27.5500,-92.4900,122.0,7.0,170.0,99.0,'11111222,11111222,11144222' 
ADCP,ioos:station:wmo:42361:1,2005-09-14T11:00:00Z,27.5500,-92.4900,122.0,6.0,170.0,99.0,'11111222,11111222,11144222' 
ADCP,ioos:station:wmo:42361:1,2005-09-14T12:00:00Z,27.5500,-92.4900,122.0,5.0,170.0,99.0,'11111222,11111222,11144222' 
ADCP,ioos:station:wmo:42361:1,2005-09-14T13:00:00Z,27.5500,-92.4900,122.0,5.0,160.0,99.0,'11111222,11111222,11144222' 
ADCP,ioos:station:wmo:42361:1,2005-09-14T14:00:00Z,27.5500,-92.4900,122.0,5.0,180.0,99.0,'11111222,11111222,11144222' 
ADCP,ioos:station:wmo:42361:1,2005-09-14T15:00:00Z,27.5500,-92.4900,122.0,4.0,180.0,99.0,'11111222,11111222,11144222' 
ADCP,ioos:station:wmo:42361:1,2005-09-14T16:00:00Z,27.5500,-92.4900,122.0,3.0,180.0,99.0,'11111222,11111222,11144222' 
ADCP,ioos:station:wmo:42361:1,2005-09-14T17:00:00Z,27.5500,-92.4900,122.0,4.0,180.0,99.0,'11111222,11111222,11144222' 
ADCP,ioos:station:wmo:42361:1,2005-09-14T18:00:00Z,27.5500,-92.4900,122.0,4.0,180.0,99.0,'11111222,11111222,11144222' 
ADCP,ioos:station:wmo:42361:1,2005-09-14T19:00:00Z,27.5500,-92.4900,122.0,4.0,180.0,99.0,'11111222,11111222,11144222' 
ADCP,ioos:station:wmo:42361:1,2005-09-14T20:00:00Z,27.5500,-92.4900,122.0,2.0,190.0,99.0,'11111222,11111222,11144222' 
ADCP,ioos:station:wmo:42361:1,2005-09-14T21:00:00Z,27.5500,-92.4900,122.0,3.0,180.0,99.0,'11111222,11111222,11144222' 
ADCP,ioos:station:wmo:42361:1,2005-09-14T22:00:00Z,27.5500,-92.4900,122.0,3.0,170.0,99.0,'11111222,11111222,11144222' 
ADCP,ioos:station:wmo:42361:1,2005-09-15T02:00:00Z,27.5500,-92.4900,122.0,4.0,110.0,99.0,'11111222,11111222,11144222' 
ADCP,ioos:station:wmo:42361:1,2005-09-15T03:00:00Z,27.5500,-92.4900,122.0,5.0,110.0,99.0,'11111222,11111222,11144222' 
ADCP,ioos:station:wmo:42361:1,2005-09-15T04:00:00Z,27.5500,-92.4900,122.0,6.0,130.0,99.0,'11111222,11111222,11144222' 
ADCP,ioos:station:wmo:42361:1,2005-09-15T05:00:00Z,27.5500,-92.4900,122.0,6.0,130.0,99.0,'11111222,11111222,11144222' 
ADCP,ioos:station:wmo:42361:1,2005-09-15T06:00:00Z,27.5500,-92.4900,122.0,7.0,140.0,99.0,'11111222,11111222,11144222' 
ADCP,ioos:station:wmo:42361:1,2005-09-15T07:00:00Z,27.5500,-92.4900,122.0,7.0,160.0,99.0,'11111222,11111222,11144222' 
ADCP,ioos:station:wmo:42361:1,2005-09-15T08:00:00Z,27.5500,-92.4900,122.0,6.0,160.0,99.0,'11111222,11111222,11144222' 
ADCP,ioos:station:wmo:42361:1,2005-09-15T09:00:00Z,27.5500,-92.4900,122.0,6.0,170.0,99.0,'11111222,11111222,11144222' 
ADCP,ioos:station:wmo:42361:1,2005-09-15T10:00:00Z,27.5500,-92.4900,122.0,7.0,180.0,99.0,'11111222,11111222,11144222' 
ADCP,ioos:station:wmo:42361:1,2005-09-15T11:00:00Z,27.5500,-92.4900,122.0,6.0,180.0,99.0,'11111222,11111222,11144222' 
ADCP,ioos:station:wmo:42361:1,2005-09-15T12:00:00Z,27.5500,-92.4900,122.0,5.0,180.0,99.0,'11111222,11111222,11144222' 
ADCP,ioos:station:wmo:42361:1,2005-09-15T13:00:00Z,27.5500,-92.4900,122.0,5.0,170.0,99.0,'11111222,11111222,11144222' 
ADCP,ioos:station:wmo:42361:1,2005-09-15T18:00:00Z,27.5500,-92.4900,122.0,3.0,190.0,99.0,'11111222,11111222,11144222' 
ADCP,ioos:station:wmo:42361:1,2005-09-15T19:00:00Z,27.5500,-92.4900,122.0,2.0,190.0,99.0,'11111222,11111222,11144222' 
ADCP,ioos:station:wmo:42361:1,2005-09-15T20:00:00Z,27.5500,-92.4900,122.0,3.0,180.0,99.0,'11111222,11111222,11144222' 
ADCP,ioos:station:wmo:42361:1,2005-09-15T21:00:00Z,27.5500,-92.4900,122.0,3.0,160.0,99.0,'11111222,11111222,11144222' 
ADCP,ioos:station:wmo:42361:1,2005-09-15T22:00:00Z,27.5500,-92.4900,122.0,2.0,140.0,99.0,'11111222,11111222,11144222' 
ADCP,ioos:station:wmo:42361:1,2005-09-15T23:00:00Z,27.5500,-92.4900,122.0,2.0,140.0,99.0,'11111222,11111222,11144222' 
ADCP,ioos:station:wmo:42361:1,2005-09-16T00:00:00Z,27.5500,-92.4900,122.0,2.0,130.0,99.0,'11111222,11111222,11144222' 
ADCP,ioos:station:wmo:42361:1,2005-09-16T01:00:00Z,27.5500,-92.4900,122.0,2.0,130.0,99.0,'11111222,11111222,11144222' 
ADCP,ioos:station:wmo:42361:1,2005-09-16T02:00:00Z,27.5500,-92.4900,122.0,2.0,130.0,99.0,'11111222,11111222,11144222' 
ADCP,ioos:station:wmo:42361:1,2005-09-16T03:00:00Z,27.5500,-92.4900,122.0,2.0,130.0,99.0,'11111222,11111222,11144222' 
ADCP,ioos:station:wmo:42361:1,2005-09-16T15:00:00Z,27.5500,-92.4900,122.0,3.0,200.0,99.0,'11111222,11111222,11144222' 
ADCP,ioos:station:wmo:42361:1,2005-09-16T16:00:00Z,27.5500,-92.4900,122.0,3.0,190.0,99.0,'11111222,11111222,11144222' 
ADCP,ioos:station:wmo:42361:1,2005-09-16T17:00:00Z,27.5500,-92.4900,122.0,2.0,250.0,99.0,'11111222,11111222,11144222' 
ADCP,ioos:station:wmo:42361:1,2005-09-16T18:00:00Z,27.5500,-92.4900,122.0,2.0,250.0,99.0,'11111222,11111222,11144222' 
ADCP,ioos:station:wmo:42361:1,2005-09-16T19:00:00Z,27.5500,-92.4900,122.0,2.0,260.0,99.0,'11111222,11111222,11144222' 
ADCP,ioos:station:wmo:42361:1,2005-09-16T20:00:00Z,27.5500,-92.4900,122.0,2.0,260.0,99.0,'11111222,11111222,11144222' 
ADCP,ioos:station:wmo:42361:1,2005-09-16T21:00:00Z,27.5500,-92.4900,122.0,2.0,280.0,99.0,'11111222,11111222,11144222' 
ADCP,ioos:station:wmo:42361:1,2005-09-16T22:00:00Z,27.5500,-92.4900,122.0,2.0,290.0,99.0,'11111222,11111222,11144222' 
ADCP,ioos:station:wmo:42361:1,2005-09-16T23:00:00Z,27.5500,-92.4900,122.0,2.0,330.0,99.0,'11111222,11111222,11144222' 
ADCP,ioos:station:wmo:42361:1,2005-09-17T00:00:00Z,27.5500,-92.4900,122.0,2.0,330.0,99.0,'11111222,11111222,11144222' 
ADCP,ioos:station:wmo:42361:1,2005-09-17T01:00:00Z,27.5500,-92.4900,122.0,2.0,10.0,99.0,'11111222,11111222,11144222' 
ADCP,ioos:station:wmo:42361:1,2005-09-17T02:00:00Z,27.5500,-92.4900,122.0,2.0,40.0,99.0,'11111222,11111222,11144222' 
ADCP,ioos:station:wmo:42361:1,2005-09-17T03:00:00Z,27.5500,-92.4900,122.0,2.0,40.0,99.0,'11111222,11111222,11144222' 
ADCP,ioos:station:wmo:42361:1,2005-09-17T04:00:00Z,27.5500,-92.4900,122.0,2.0,40.0,99.0,'11111222,11111222,11144222' 
ADCP,ioos:station:wmo:42361:1,2005-09-17T05:00:00Z,27.5500,-92.4900,122.0,2.0,150.0,99.0,'11111222,11111222,11144222' 
ADCP,ioos:station:wmo:42361:1,2005-09-17T06:00:00Z,27.5500,-92.4900,122.0,3.0,130.0,99.0,'11111222,11111222,11144222' 
ADCP,ioos:station:wmo:42361:1,2005-09-17T07:00:00Z,27.5500,-92.4900,122.0,4.0,130.0,99.0,'11111222,11111222,11144222' 
ADCP,ioos:station:wmo:42361:1,2005-09-17T08:00:00Z,27.5500,-92.4900,122.0,4.0,170.0,99.0,'11111222,11111222,11144222' 
ADCP,ioos:station:wmo:42361:1,2005-09-17T09:00:00Z,27.5500,-92.4900,122.0,3.0,190.0,99.0,'11111222,11111222,11144222' 
ADCP,ioos:station:wmo:42361:1,2005-09-17T10:00:00Z,27.5500,-92.4900,122.0,3.0,190.0,99.0,'11111222,11111222,11144222' 
ADCP,ioos:station:wmo:42361:1,2005-09-17T11:00:00Z,27.5500,-92.4900,122.0,4.0,230.0,99.0,'11111222,11111222,11144222' 
ADCP,ioos:station:wmo:42361:1,2005-09-17T12:00:00Z,27.5500,-92.4900,122.0,3.0,280.0,99.0,'11111222,11111222,11144222' 
ADCP,ioos:station:wmo:42361:1,2005-09-17T13:00:00Z,27.5500,-92.4900,122.0,2.0,270.0,99.0,'11111222,11111222,11144222' 
ADCP,ioos:station:wmo:42361:1,2005-09-17T14:00:00Z,27.5500,-92.4900,122.0,2.0,290.0,99.0,'11111222,11111222,11144222' 
ADCP,ioos:station:wmo:42361:1,2005-09-17T15:00:00Z,27.5500,-92.4900,122.0,2.0,300.0,99.0,'11111222,11111222,11144222' 
ADCP,ioos:station:wmo:42361:1,2005-09-17T16:00:00Z,27.5500,-92.4900,122.0,2.0,300.0,99.0,'11111222,11111222,11144222' 
ADCP,ioos:station:wmo:42361:1,2005-09-17T17:00:00Z,27.5500,-92.4900,122.0,2.0,340.0,99.0,'11111222,11111222,11144222' 
ADCP,ioos:station:wmo:42361:1,2005-09-17T18:00:00Z,27.5500,-92.4900,122.0,3.0,340.0,99.0,'11111222,11111222,11144222' 
ADCP,ioos:station:wmo:42361:1,2005-09-17T20:00:00Z,27.5500,-92.4900,122.0,3.0,330.0,99.0,'11111222,11111222,11144222' 
ADCP,ioos:station:wmo:42361:1,2005-09-17T21:00:00Z,27.5500,-92.4900,122.0,3.0,360.0,99.0,'11111222,11144222,11144222' 
ADCP,ioos:station:wmo:42361:1,2005-09-17T22:00:00Z,27.5500,-92.4900,122.0,3.0,20.0,99.0,'11111222,11111222,11144222' 
ADCP,ioos:station:wmo:42361:1,2005-09-17T23:00:00Z,27.5500,-92.4900,122.0,3.0,20.0,99.0,'11111222,11111222,11144222' 
ADCP,ioos:station:wmo:42361:1,2005-09-18T02:00:00Z,27.5500,-92.4900,122.0,4.0,110.0,99.0,'11111222,11111222,11144222' 
ADCP,ioos:station:wmo:42361:1,2005-09-18T03:00:00Z,27.5500,-92.4900,122.0,5.0,110.0,99.0,'11111222,11111222,11144222' 
ADCP,ioos:station:wmo:42361:1,2005-09-18T04:00:00Z,27.5500,-92.4900,122.0,7.0,120.0,99.0,'11111222,11111222,11144222' 
ADCP,ioos:station:wmo:42361:1,2005-09-18T05:00:00Z,27.5500,-92.4900,122.0,6.0,120.0,99.0,'11111222,11111222,11144222' 
ADCP,ioos:station:wmo:42361:1,2005-09-18T06:00:00Z,27.5500,-92.4900,122.0,6.0,120.0,99.0,'11111222,11111222,11144222' 
ADCP,ioos:station:wmo:42361:1,2005-09-18T07:00:00Z,27.5500,-92.4900,122.0,4.0,120.0,99.0,'11111222,11111222,11144222' 
ADCP,ioos:station:wmo:42361:1,2005-09-18T08:00:00Z,27.5500,-92.4900,122.0,4.0,120.0,99.0,'11111222,11111222,11144222' 
ADCP,ioos:station:wmo:42361:1,2005-09-18T09:00:00Z,27.5500,-92.4900,122.0,3.0,120.0,99.0,'11111222,11111222,11144222' 
ADCP,ioos:station:wmo:42361:1,2005-09-18T10:00:00Z,27.5500,-92.4900,122.0,2.0,120.0,99.0,'11111222,11111222,11144222' 
ADCP,ioos:station:wmo:42361:1,2005-09-18T11:00:00Z,27.5500,-92.4900,122.0,3.0,100.0,99.0,'11111222,11111222,11144222' 
ADCP,ioos:station:wmo:42361:1,2005-09-18T12:00:00Z,27.5500,-92.4900,122.0,2.0,120.0,99.0,'11111222,11111222,11144222' 
ADCP,ioos:station:wmo:42361:1,2005-09-18T13:00:00Z,27.5500,-92.4900,122.0,3.0,120.0,99.0,'11111222,11111222,11144222' 
ADCP,ioos:station:wmo:42361:1,2005-09-18T14:00:00Z,27.5500,-92.4900,122.0,4.0,100.0,99.0,'11111222,11111222,11144222' 
ADCP,ioos:station:wmo:42361:1,2005-09-18T15:00:00Z,27.5500,-92.4900,122.0,3.0,100.0,99.0,'11111222,11111222,11144222' 
ADCP,ioos:station:wmo:42361:1,2005-09-18T16:00:00Z,27.5500,-92.4900,122.0,3.0,100.0,99.0,'11111222,11111222,11144222' 
ADCP,ioos:station:wmo:42361:1,2005-09-19T01:00:00Z,27.5500,-92.4900,122.0,8.0,60.0,99.0,'11111222,11111222,11144222' 
ADCP,ioos:station:wmo:42361:1,2005-09-19T02:00:00Z,27.5500,-92.4900,122.0,8.0,80.0,99.0,'11111222,11111222,11144222' 
ADCP,ioos:station:wmo:42361:1,2005-09-19T03:00:00Z,27.5500,-92.4900,122.0,8.0,90.0,99.0,'11111222,11111222,11144222' 
ADCP,ioos:station:wmo:42361:1,2005-09-19T04:00:00Z,27.5500,-92.4900,122.0,9.0,80.0,99.0,'11111222,11111222,11144222' 
ADCP,ioos:station:wmo:42361:1,2005-09-19T05:00:00Z,27.5500,-92.4900,122.0,7.0,100.0,99.0,'11111222,11111222,11144222' 
ADCP,ioos:station:wmo:42361:1,2005-09-19T06:00:00Z,27.5500,-92.4900,122.0,7.0,100.0,99.0,'11111222,11111222,11144222' 
ADCP,ioos:station:wmo:42361:1,2005-09-19T07:00:00Z,27.5500,-92.4900,122.0,9.0,120.0,99.0,'11111222,11111222,11144222' 
ADCP,ioos:station:wmo:42361:1,2005-09-19T08:00:00Z,27.5500,-92.4900,122.0,9.0,120.0,99.0,'11111222,11111222,11144222' 
ADCP,ioos:station:wmo:42361:1,2005-09-19T09:00:00Z,27.5500,-92.4900,122.0,8.0,120.0,99.0,'11111222,11111222,11144222' 
ADCP,ioos:station:wmo:42361:1,2005-09-19T10:00:00Z,27.5500,-92.4900,122.0,6.0,120.0,99.0,'11111222,11111222,11144222' 
ADCP,ioos:station:wmo:42361:1,2005-09-19T11:00:00Z,27.5500,-92.4900,122.0,6.0,120.0,99.0,'11111222,11111222,11144222' 
ADCP,ioos:station:wmo:42361:1,2005-09-19T12:00:00Z,27.5500,-92.4900,122.0,4.0,120.0,99.0,'11111222,11111222,11144222' 
ADCP,ioos:station:wmo:42361:1,2005-09-19T13:00:00Z,27.5500,-92.4900,122.0,2.0,100.0,99.0,'11111222,11111222,11144222' 
ADCP,ioos:station:wmo:42361:1,2005-09-19T14:00:00Z,27.5500,-92.4900,122.0,5.0,90.0,99.0,'11111222,11111222,11144222' 
ADCP,ioos:station:wmo:42361:1,2005-09-19T15:00:00Z,27.5500,-92.4900,122.0,4.0,80.0,99.0,'11111222,11111222,11144222' 
ADCP,ioos:station:wmo:42361:1,2005-09-19T16:00:00Z,27.5500,-92.4900,122.0,4.0,70.0,99.0,'11111222,11111222,11144222' 
ADCP,ioos:station:wmo:42361:1,2005-09-19T17:00:00Z,27.5500,-92.4900,122.0,5.0,60.0,99.0,'11111222,11111222,11144222' 
ADCP,ioos:station:wmo:42361:1,2005-09-19T18:00:00Z,27.5500,-92.4900,122.0,8.0,80.0,99.0,'11111222,11111222,11144222' 
ADCP,ioos:station:wmo:42361:1,2005-09-19T19:00:00Z,27.5500,-92.4900,122.0,8.0,70.0,99.0,'11111222,11111222,11144222' 
ADCP,ioos:station:wmo:42361:1,2005-09-19T20:00:00Z,27.5500,-92.4900,122.0,8.0,60.0,99.0,'11111222,11111222,11144222' 
ADCP,ioos:station:wmo:42361:1,2005-09-19T21:00:00Z,27.5500,-92.4900,122.0,8.0,60.0,99.0,'11111222,11111222,11144222' 
ADCP,ioos:station:wmo:42361:1,2005-09-19T22:00:00Z,27.5500,-92.4900,122.0,8.0,50.0,99.0,'11111222,11111222,11144222' 
ADCP,ioos:station:wmo:42361:1,2005-09-19T23:00:00Z,27.5500,-92.4900,122.0,7.0,70.0,99.0,'11111222,11111222,11144222' 
ADCP,ioos:station:wmo:42361:1,2005-09-20T00:00:00Z,27.5500,-92.4900,122.0,7.0,70.0,99.0,'11111222,11111222,11144222' 
ADCP,ioos:station:wmo:42361:1,2005-09-20T01:00:00Z,27.5500,-92.4900,122.0,7.0,50.0,99.0,'11111222,11111222,11144222' 
ADCP,ioos:station:wmo:42361:1,2005-09-20T02:00:00Z,27.5500,-92.4900,122.0,7.0,50.0,99.0,'11111222,11111222,11144222' 
ADCP,ioos:station:wmo:42361:1,2005-09-20T03:00:00Z,27.5500,-92.4900,122.0,7.0,80.0,99.0,'11111222,11111222,11144222' 
ADCP,ioos:station:wmo:42361:1,2005-09-20T04:00:00Z,27.5500,-92.4900,122.0,5.0,60.0,99.0,'11111222,11111222,11144222' 
ADCP,ioos:station:wmo:42361:1,2005-09-20T05:00:00Z,27.5500,-92.4900,122.0,4.0,90.0,99.0,'11111222,11111222,11144222' 
ADCP,ioos:station:wmo:42361:1,2005-09-20T06:00:00Z,27.5500,-92.4900,122.0,4.0,50.0,99.0,'11111222,11111222,11144222' 
ADCP,ioos:station:wmo:42361:1,2005-09-20T07:00:00Z,27.5500,-92.4900,122.0,2.0,50.0,99.0,'11111222,11111222,11144222' 
ADCP,ioos:station:wmo:42361:1,2005-09-20T08:00:00Z,27.5500,-92.4900,122.0,2.0,50.0,99.0,'11111222,11111222,11144222' 
ADCP,ioos:station:wmo:42361:1,2005-09-20T09:00:00Z,27.5500,-92.4900,122.0,2.0,50.0,99.0,'11111222,11111222,11144222' 
ADCP,ioos:station:wmo:42361:1,2005-09-20T10:00:00Z,27.5500,-92.4900,122.0,5.0,20.0,99.0,'11111222,11111222,11144222' 
ADCP,ioos:station:wmo:42361:1,2005-09-20T11:00:00Z,27.5500,-92.4900,122.0,5.0,20.0,99.0,'11111222,11111222,11144222' 
ADCP,ioos:station:wmo:42361:1,2005-09-20T12:00:00Z,27.5500,-92.4900,122.0,5.0,20.0,99.0,'11111222,11111222,11144222' 
ADCP,ioos:station:wmo:42361:1,2005-09-20T13:00:00Z,27.5500,-92.4900,122.0,6.0,20.0,99.0,'11111222,11111222,11144222' 
ADCP,ioos:station:wmo:42361:1,2005-09-20T14:00:00Z,27.5500,-92.4900,122.0,8.0,20.0,99.0,'11111222,11111222,11144222' 
ADCP,ioos:station:wmo:42361:1,2005-09-20T15:00:00Z,27.5500,-92.4900,122.0,7.0,20.0,99.0,'11111222,11111222,11144222' 
ADCP,ioos:station:wmo:42361:1,2005-09-20T16:00:00Z,27.5500,-92.4900,122.0,8.0,20.0,99.0,'11111222,11111222,11144222' 
ADCP,ioos:station:wmo:42361:1,2005-09-20T17:00:00Z,27.5500,-92.4900,122.0,8.0,20.0,99.0,'11111222,11111222,11144222' 
ADCP,ioos:station:wmo:42361:1,2005-09-20T18:00:00Z,27.5500,-92.4900,122.0,8.0,10.0,99.0,'11111222,11111222,11144222' 
ADCP,ioos:station:wmo:42361:1,2005-09-20T19:00:00Z,27.5500,-92.4900,122.0,7.0,10.0,99.0,'11111222,11111222,11144222' 
ADCP,ioos:station:wmo:42361:1,2005-09-20T20:00:00Z,27.5500,-92.4900,122.0,8.0,10.0,99.0,'11111222,11111222,11144222' 
ADCP,ioos:station:wmo:42361:1,2005-09-20T21:00:00Z,27.5500,-92.4900,122.0,8.0,10.0,99.0,'11111222,11111222,11144222' 
ADCP,ioos:station:wmo:42361:1,2005-09-20T22:00:00Z,27.5500,-92.4900,122.0,8.0,10.0,99.0,'11111222,11111222,11144222' 
ADCP,ioos:station:wmo:42361:1,2005-09-20T23:00:00Z,27.5500,-92.4900,122.0,6.0,10.0,99.0,'11111222,11111222,11144222' 
ADCP,ioos:station:wmo:42361:1,2005-09-21T00:00:00Z,27.5500,-92.4900,122.0,5.0,20.0,99.0,'11111222,11111222,11144222' 
ADCP,ioos:station:wmo:42361:1,2005-09-21T01:00:00Z,27.5500,-92.4900,122.0,5.0,20.0,99.0,'11111222,11111222,11144222' 
ADCP,ioos:station:wmo:42361:1,2005-09-21T02:00:00Z,27.5500,-92.4900,122.0,4.0,20.0,99.0,'11111222,11111222,11144222' 
ADCP,ioos:station:wmo:42361:1,2005-09-21T03:00:00Z,27.5500,-92.4900,122.0,5.0,10.0,99.0,'11111222,11111222,11144222' 
ADCP,ioos:station:wmo:42361:1,2005-09-21T04:00:00Z,27.5500,-92.4900,122.0,4.0,20.0,99.0,'11111222,11111222,11144222' 
ADCP,ioos:station:wmo:42361:1,2005-09-21T05:00:00Z,27.5500,-92.4900,122.0,3.0,10.0,99.0,'11111222,11111222,11144222' 
ADCP,ioos:station:wmo:42361:1,2005-09-21T06:00:00Z,27.5500,-92.4900,122.0,3.0,360.0,99.0,'11111222,11144222,11144222' 
ADCP,ioos:station:wmo:42361:1,2005-09-21T07:00:00Z,27.5500,-92.4900,122.0,3.0,20.0,99.0,'11111222,11111222,11144222' 
ADCP,ioos:station:wmo:42361:1,2005-09-21T08:00:00Z,27.5500,-92.4900,122.0,4.0,10.0,99.0,'11111222,11111222,11144222' 
ADCP,ioos:station:wmo:42361:1,2005-09-21T09:00:00Z,27.5500,-92.4900,122.0,5.0,360.0,99.0,'11111222,11144222,11144222' 
ADCP,ioos:station:wmo:42361:1,2005-09-21T10:00:00Z,27.5500,-92.4900,122.0,5.0,360.0,99.0,'11111222,11144222,11144222' 
ADCP,ioos:station:wmo:42361:1,2005-09-21T11:00:00Z,27.5500,-92.4900,122.0,7.0,360.0,99.0,'11111222,11144222,11144222' 
ADCP,ioos:station:wmo:42361:1,2005-09-21T12:00:00Z,27.5500,-92.4900,122.0,7.0,360.0,99.0,'11111222,11144222,11144222' 
ADCP,ioos:station:wmo:42361:1,2005-09-21T13:00:00Z,27.5500,-92.4900,122.0,6.0,360.0,99.0,'11111222,11144222,11144222' 
ADCP,ioos:station:wmo:42361:1,2005-09-21T14:00:00Z,27.5500,-92.4900,122.0,5.0,10.0,99.0,'11111222,11111222,11144222' 
ADCP,ioos:station:wmo:42361:1,2005-09-21T15:00:00Z,27.5500,-92.4900,122.0,5.0,360.0,99.0,'11111222,11144222,11144222' 
ADCP,ioos:station:wmo:42361:1,2005-09-21T16:00:00Z,27.5500,-92.4900,122.0,5.0,360.0,99.0,'11111222,11144222,11144222' 
ADCP,ioos:station:wmo:42361:1,2005-09-21T17:00:00Z,27.5500,-92.4900,122.0,6.0,10.0,99.0,'11111222,11111222,11144222' 
ADCP,ioos:station:wmo:42361:1,2005-09-21T18:00:00Z,27.5500,-92.4900,122.0,8.0,10.0,99.0,'11111222,11111222,11144222' 
ADCP,ioos:station:wmo:42361:1,2005-09-21T19:00:00Z,27.5500,-92.4900,122.0,9.0,20.0,99.0,'11111222,11111222,11144222' 
ADCP,ioos:station:wmo:42361:1,2005-09-21T20:00:00Z,27.5500,-92.4900,122.0,10.0,20.0,99.0,'11111222,11111222,11144222' 
ADCP,ioos:station:wmo:42361:1,2005-09-21T21:00:00Z,27.5500,-92.4900,122.0,10.0,20.0,99.0,'11111222,11111222,11144222' 
ADCP,ioos:station:wmo:42361:1,2005-09-21T22:00:00Z,27.5500,-92.4900,122.0,10.0,30.0,99.0,'11111222,11111222,11144222' 
ADCP,ioos:station:wmo:42361:1,2005-09-21T23:00:00Z,27.5500,-92.4900,122.0,11.0,20.0,99.0,'11111222,11111222,11144222' 
ADCP,ioos:station:wmo:42361:1,2005-09-22T00:00:00Z,27.5500,-92.4900,122.0,12.0,30.0,99.0,'11111222,11111222,11144222' 
ADCP,ioos:station:wmo:42361:1,2005-09-22T01:00:00Z,27.5500,-92.4900,122.0,12.0,30.0,99.0,'11111222,11111222,11144222' 
ADCP,ioos:station:wmo:42361:1,2005-09-22T02:00:00Z,27.5500,-92.4900,122.0,14.0,40.0,99.0,'11111222,11111222,11144222' 
ADCP,ioos:station:wmo:42361:1,2005-09-22T03:00:00Z,27.5500,-92.4900,122.0,12.0,30.0,99.0,'11111222,11111222,11144222' 
 
DISCLAIMER: The Gulf of Mexico Coastal and Ocean Observing (GCOOS) Data Portal aggregates data from the regional data providers for the convenience of all data users. Data published on this website should not be used for navigation or certain other uses as we cannot guarantee data accuracy or availability. The data and delivery services are provided 'as is' without warranty of any kind. Data Source: Gulf of Mexico Coastal Ocean Observing System Data Portal (http://data.gcoos.org/) 
